Location: Guayaquil
(2.1667°S, 79.9000°W)
Time: 18:30:18
(UTC-05:00)

DNEPR OBJECT AB - Pass Details

Date: 24 March 2018
Orbit: 587 x 704 km, 97.6° (Epoch: 13 November)

Event Time Altitude Azimuth Distance (km) Brightness Sun altitude
Rises 19:27:57 0° 186° (S) 3,065 ? -15.6°
Reaches altitude 10° 19:30:25 10° 196° (SSW) 2,131 ? -16.2°
Maximum altitude 19:34:32 31° 257° (WSW) 1,173 ? -17.2°
Drops below altitude 10° 19:38:31 10° 320° (NW) 2,063 ? -18.2°
Sets 19:40:54 0° 330° (NNW) 2,950 ? -18.8°
